Simultaneous Nadir Overpasses (SNOs) Predictions

Prediction of SNOs between METOP-A and NOAA-19 Satellite Orbit:

Table of predicted SNOs for the next 14.0 days since TLE Epoch: 4/1/2016
Index Date (METOP-A) Time (METOP-A) Lat,Lon (METOP-A) SZA (METOP-A ) Date (NOAA-19) Time (NOAA-19) Lat,Lon (NOAA-19) SZA (NOAA-19 ) Distance(km) Time Diff (sec)
1 04/07/2016 01:40:18 -75.94, -25.32 111.08 04/07/2016 01:39:03 -75.96, -25.45 111.06 3.77 75
2 04/07/2016 02:30:58 75.92, 141.93 68.89 04/07/2016 02:30:02 75.92, 141.94 68.89 0.53 56
3 04/07/2016 03:21:40 -75.93, -50.72 111.12 04/07/2016 03:21:04 -75.90, -50.78 111.14 2.73 36
4 04/07/2016 04:12:20 75.90, 116.53 68.85 04/07/2016 04:12:04 75.91, 116.46 68.86 2.14 16
5 04/07/2016 05:03:02 -75.91, -76.12 111.16 04/07/2016 05:03:06 -75.90, -76.26 111.17 3.92 4
6 04/07/2016 05:53:42 75.88, 91.13 68.80 04/07/2016 05:54:05 75.86, 91.13 68.78 2.79 23
7 04/07/2016 06:44:25 -75.84,-101.67 111.25 04/07/2016 06:45:07 -75.85,-101.58 111.25 2.35 42
8 04/07/2016 07:35:04 75.87, 65.73 68.76 04/07/2016 07:36:07 75.85, 65.65 68.75 2.80 63
9 04/07/2016 08:25:53 -75.55,-127.96 111.57 04/07/2016 08:27:03 -75.57,-126.15 111.56 50.37 70




NCC Satellite Simultaneous Nadir Overpasses (SNOs) Prediction Service
